Location: Clinton NY
(43.0598°N, 75.3602°W)
Time: 06:20:19
(UTC-04:00)

Daily predictions for brighter satellites

Satellite Brightness Start Highest point End
(mag) Time Altitude Azimuth Time Altitude Azimuth Time Altitude Azimuth
Meteor 1-27 Rocket 4.3 20:55:33 10° N 21:00:47 39° ENE 21:05:55 10° SE
CENTAUR R/B 3.4 20:53:36 10° NW 21:01:25 69° WSW 21:09:39 10° SSE
Cosmos 1356 Rocket 3.5 20:58:03 10° S 21:02:16 87° ESE 21:06:36 10° N
Coronas F rocket 1.3 21:01:32 10° S 21:04:11 81° WNW 21:06:50 10° N
Cosmos 1340 Rocket 3.7 21:03:13 10° SSW 21:07:07 53° WNW 21:11:06 10° N
Cosmos 676 Rocket 4.5 21:03:52 10° N 21:08:53 46° ENE 21:13:53 10° SE
Cosmos 1606 3.4 21:07:51 10° N 21:11:33 38° ENE 21:15:14 10° SSE
Cosmos 1174 4.0 21:09:33 10° NNW 21:12:42 38° NE 21:15:21 11° ESE
SJ-11-01 4.3 21:07:58 10° SSE 21:12:43 88° ENE 21:17:30 10° NNW
ALOS 3.8 21:08:23 10° SSW 21:12:44 38° W 21:17:05 10° NNW
Cosmos 1908 Rocket 4.2 21:08:56 10° SSE 21:13:00 38° E 21:17:06 10° NNE
Cosmos 2056 Rocket 3.5 21:08:23 10° SSW 21:13:34 88° ESE 21:18:42 10° NNE
Cosmos 1782 2.8 21:10:04 10° N 21:14:06 72° E 21:18:07 10° SSE
deb Chang Zheng 4 3.9 21:10:47 10° NNE 21:15:04 49° E 21:19:22 10° S
Cosmos 1378 Rocket 4.2 21:11:45 10° N 21:15:46 36° ENE 21:19:45 10° SE
Cosmos 1733 Rocket 3.1 21:11:38 10° S 21:16:04 87° WNW 21:20:28 10° N
Cosmos 2154 Rocket 4.3 21:10:29 10° SSE 21:16:23 48° E 21:22:18 10° NNE
Cosmos 1892 3.4 21:15:10 10° SSW 21:18:56 57° W 21:22:46 10° N
Atlas Centaur 2 3.2 21:18:16 10° SSW 21:19:20 11° S 21:20:25 10° SSE
PSLV R/B 4.4 21:17:56 12° SE 21:20:05 25° ENE 21:22:35 10° NNE
NOSS 2-2 (D) 3.9 21:16:04 10° SW 21:20:12 74° NW 21:25:05 10° NNE
Cosmos 2084 4.0 21:17:37 10° S 21:20:59 29° ESE 21:24:20 10° ENE
Cosmos 2184 Rocket 4.2 21:16:53 10° S 21:23:02 79° W 21:29:16 10° N
Cosmos 1939 Rocket 2.8 21:19:36 10° SSE 21:23:28 84° ENE 21:27:25 10° N
Cosmos 1238 Rocket 3.2 21:24:03 10° NNE 21:27:01 34° E 21:29:43 14° SE
COS B Rocket 3.5 21:25:12 10° N 21:29:16 52° E 21:32:54 10° SSE
MetOp-B 4.5 21:25:52 11° SE 21:30:53 52° ENE 21:36:04 10° N
SL-27 R/B 3.2 21:28:04 10° NNW 21:31:39 52° WSW 21:35:08 10° S
SPOT 5 3.2 21:27:09 10° SSE 21:32:21 64° ENE 21:37:41 10° N
Terra 3.9 21:30:39 10° E 21:33:02 14° ENE 21:35:27 10° NNE
SL-8 R/B 4.0 21:28:39 10° WSW 21:33:28 71° NNW 21:38:17 10° ENE
ISS -2.5 21:30:53 10° SSW 21:33:45 29° SE 21:36:37 10° ENE
NOSS 2-2 (C) 4.5 21:30:54 10° SW 21:34:59 54° NW 21:39:49 10° NNE
H-2A R/B 2.2 21:38:42 10° S 21:43:01 72° WSW 21:47:15 10° NNW
COSMOS 2487 2.8 21:41:14 10° N 21:44:49 53° ENE 21:47:00 21° SE
ARGOS 3.7 21:42:25 16° SE 21:46:20 44° ENE 21:51:23 10° N
ATLAS 5 CENTAUR R/B 3.6 21:40:51 10° NW 21:46:24 38° WSW 21:52:15 10° S
Envisat 3.3 21:43:38 10° S 21:48:40 66° WSW 21:53:45 10° NNW
BREEZE-M DEB (TANK) 3.6 21:41:02 10° WNW 21:55:28 87° NNE 21:58:22 21° ESE
Cosmos 1420 Rocket 4.2 21:54:12 10° S 21:59:15 51° ESE 22:04:19 10° NNE
Intercosmos 25 3.4 21:57:44 23° SSE 21:59:32 43° E 22:02:34 10° NNE
GPS 2-05 Rocket1 4.3 21:57:46 10° SW 22:00:35 22° S 22:00:35 22° S
Cosmos 1833 Rocket 3.7 22:00:01 10° N 22:05:04 33° NE 22:08:17 19° ESE
Cosmos 2278 Rocket 2.1 21:59:45 10° SSW 22:05:25 80° ESE 22:11:07 10° NNE
H-2A R/B 3.0 22:03:38 21° ESE 22:06:30 35° ENE 22:11:18 10° N
Cosmos 614 Rocket 4.3 22:02:58 10° N 22:07:57 51° ENE 22:10:37 25° SE
Cosmos 1825 2.5 22:04:57 10° SSW 22:08:43 66° W 22:12:32 10° N
YAOGAN 6 2.6 22:06:45 23° S 22:08:47 75° WSW 22:12:19 10° NNW
Okean 2 Rocket 3.0 22:05:29 15° S 22:09:06 76° E 22:13:31 10° NNE
Cosmos 1844 4.2 22:04:02 10° SW 22:09:45 66° WNW 22:15:33 10° NNE
Nadezhda 3 Rocket 4.4 22:03:54 10° NNW 22:10:12 65° W 22:16:29 10° S
Cosmos 1408 3.0 22:07:03 10° SSW 22:10:40 61° W 22:14:17 10° N
Cosmos 1844 Rocket 3.8 22:05:51 10° SW 22:11:17 48° WNW 22:16:45 10° NNE
Cosmos 2218 Rocket 4.3 22:07:31 19° SSE 22:11:57 51° E 22:18:08 10° NNE
BREEZE-M DEB (TANK) 4.2 22:10:05 10° W 22:12:59 47° N 22:20:39 10° ENE
Cosmos 1242 Rocket 2.5 22:11:59 10° N 22:15:39 85° E 22:17:13 33° SSE
Cosmos 1140 Rocket 3.4 22:10:30 10° NNW 22:15:40 90° WSW 22:18:40 26° SSE
Cosmos 1452 Rocket 4.1 22:11:25 10° SSW 22:16:37 60° WNW 22:21:52 10° NNE
Okean 3 4.1 22:16:32 10° NNW 22:20:44 54° W 22:23:41 18° SSW
SPOT 1/Viking Rocket 3.6 22:18:19 22° S 22:21:43 82° WSW 22:26:58 10° NNW
USA 234 3.6 22:16:51 10° ENE 22:22:52 38° SE 22:28:49 10° SSW
Cosmos 2082 Rocket 2.5 22:18:43 10° NNW 22:24:21 56° ENE 22:27:07 29° SE
CZ-4 R/B 3.7 22:19:47 10° NNE 22:24:27 63° ESE 22:26:53 27° S
Cosmos 1782 Rocket 4.1 22:21:19 10° SSW 22:25:42 58° W 22:30:09 10° N
Cosmos 1727 Rocket 4.2 22:20:40 10° N 22:26:42 52° ENE 22:29:40 29° SE
DELTA 2 DEB (DPAF) 4.3 22:25:13 34° SE 22:26:55 56° ENE 22:31:18 10° N
Cosmos 1812 3.9 22:24:39 10° NNE 22:28:00 27° ENE 22:28:24 26° E
CZ-4B R/B 3.4 22:23:15 10° NNE 22:28:15 88° WNW 22:32:07 16° SSW
Cosmos 1959 Rocket 4.4 22:26:11 22° S 22:30:19 71° E 22:36:24 10° NNE
DNEPR-1 R/B 3.9 22:30:44 10° NW 22:36:08 72° WSW 22:37:55 37° SSE
Cosmos 2297 3.6 22:34:15 13° SSW 22:39:17 77° ESE 22:45:02 10° NNE
Cosmos 1975 Rocket 4.1 22:36:08 10° NNW 22:40:11 39° W 22:42:49 19° SSW
Gbstr 26 Del rocket 4.4 22:36:48 10° NW 22:41:36 37° NNE 22:44:31 17° ENE
CARTOSAT-1 3.7 22:41:40 45° SE 22:42:44 60° ENE 22:47:00 10° N
SAR-Lupe-2 4.5 22:45:43 34° ENE 22:45:45 34° ENE 22:49:02 10° N
Timation 2 Rocket 4.1 22:40:45 10° NNW 22:46:39 62° WSW 22:49:33 30° S
CZ-4C R/B 3.2 22:46:35 55° SSE 22:47:24 89° W 22:51:30 10° NNW
Cosmos 1850 Rocket 4.3 22:43:21 10° NNW 22:48:36 62° WSW 22:50:56 33° S
SL-8 Rocket 4.2 22:45:50 15° SSW 22:51:09 68° W 22:57:25 10° N
Cosmos 1339 Rocket 4.5 22:46:33 10° N 22:52:41 69° E 22:55:09 38° SSE
Cosmos 1536 Rocket 3.5 22:48:36 10° N 22:53:06 87° ENE 22:54:12 52° SSE
Landsat 7 3.9 22:52:46 40° S 22:54:26 74° WSW 22:59:13 10° NNW
Meteor 2-8 Rocket 4.4 22:49:52 10° N 22:56:03 87° ENE 22:58:43 37° S
DMSP B5D2-2 4.0 22:55:01 10° NNE 23:00:15 72° ESE 23:01:53 44° S
BREEZE-M TANK 3.2 22:57:04 10° W 23:07:30 73° N 23:09:01 36° E
BREEZE-M DEB (TANK) 3.8 23:07:07 10° NW 23:09:14 27° NNE 23:13:16 10° ENE
USA 229 DEB 3.7 23:02:51 10° NW 23:09:59 83° WSW 23:12:49 41° SSE
USA 229 3.7 23:02:57 10° NW 23:10:05 83° SW 23:12:55 41° SSE
ISS -2.0 23:07:00 10° W 23:10:06 40° NNW 23:13:13 10° NE
Terra 1.8 23:09:02 51° S 23:10:11 74° WSW 23:14:57 10° NNW
Cosmos 2369 Rocket 3.8 23:15:46 19° E 23:15:46 19° E 23:18:43 10° NE
Cosmos 2151 Rocket 4.4 23:13:01 29° SW 23:14:56 48° WNW 23:19:21 10° N
Spot 4 3.8 23:16:28 59° S 23:17:23 83° WSW 23:22:17 10° NNW
Iridium 4 Rocket 4.3 23:14:20 10° N 23:19:56 44° E 23:20:57 40° ESE
Cosmos 1331 Rocket 3.8 23:20:06 60° SSE 23:20:56 74° ESE 23:26:07 10° NNE
Meteor 1-20 Rocket 4.2 23:22:26 40° SSW 23:24:29 76° W 23:30:02 10° N
Cosmos 1110 Rocket 3.9 23:25:13 51° SSW 23:26:37 87° WNW 23:31:52 10° NNE
Okean 1 3.4 23:22:34 10° NNW 23:26:36 71° W 23:26:36 71° W
Lacrosse 5 3.4 23:30:40 22° ENE 23:30:40 22° ENE 23:32:45 10° ENE
ASTEX 1 3.4 23:26:12 10° N 23:31:10 82° W 23:31:59 63° SSW
ALOS 2 4.2 23:32:55 23° ENE 23:33:02 23° ENE 23:36:29 10° NNE
Cosmos 1025 Rocket 3.6 23:31:17 10° N 23:35:16 47° ENE 23:35:16 47° ENE
Cosmos 1809 Rocket 4.4 23:35:17 54° SSE 23:36:31 67° E 23:42:39 10° NNE
Cosmos 1300 Rocket 3.8 23:39:22 59° WSW 23:39:45 62° W 23:44:10 10° N
Okean 1 Rocket 3.1 23:40:29 70° WSW 23:40:41 71° W 23:45:10 10° N
Cosmos 1535 Rocket 4.5 23:40:50 55° SSE 23:42:15 74° E 23:48:39 10° NNE
Okean 1-7 Rocket 3.7 23:40:55 10° NNW 23:45:24 65° W 23:45:24 65° W
H-2A R/B 3.4 23:44:16 27° SW 23:45:53 32° W 23:50:39 10° NNW
Cosmos 1354 Rocket 4.3 23:42:50 10° NNW 23:48:01 54° ENE 23:48:32 51° E
Cosmos 1633 4.1 23:49:34 30° NE 23:49:34 30° NE 23:51:43 10° NNE
Cosmos 1833 Rocket 3.5 23:43:52 10° NW 23:49:02 39° WSW 23:49:59 36° SW
ATLAS 2AS CENTAUR R/B 4.3 23:41:50 10° NNW 23:49:07 34° NE 23:55:27 12° E
Cosmos 1486 Rocket 3.9 23:44:46 10° NNW 23:50:07 79° WSW 23:50:34 73° SSW
Cosmos 1943 Rocket 4.1 23:56:03 16° E 23:56:03 16° E 23:58:16 10° ENE
